, AK

(GMT )
Denali Park

Weather History for PAIN - August, 2019

Change the Weather History Date:

Saturday, August 24, 2019

  Actual Average Record
Temperature  
Mean Temperature 48 °F -  
Max Temperature 57 °F 59 °F 79 °F (1979)
Min Temperature 39 °F 35 °F 23 °F (1969)
Degree Days  
Heating Degree Days 17    
Moisture  
Dew Point 39 °F    
Average Humidity 76    
Maximum Humidity 96    
Minimum Humidity 49    
Precipitation  
Precipitation 0.02 in - - ()
Sea Level Pressure  
Sea Level Pressure 29.81 in    
Wind  
Wind Speed 2 mph (NNW)    
Max Wind Speed 9 mph    
Max Gust Speed -    
Visibility 10 miles    
Events Rain    
Averages and records for this station are not official NWS values.
T = Trace of Precipitation, MM = Missing Value Source: NWS Daily Summary

Daily Weather History Graph

Daily Weather History Graph

Search for Another Location

Airport or City:

Astronomy

Aug. 24, 2019 Rise Set
Actual Time 6:16 AM AKDT 9:37 PM AKDT
Civil Twilight 5:19 AM AKDT 10:33 PM AKDT
Nautical Twilight 3:53 AM AKDT 11:57 PM AKDT
Astronomical Twilight Sun does not rise Sun does not rise
Moon 11:44 PM AKDT (8/24) 6:16 PM AKDT (8/24)
Length of Visible Light 17h 13m
Length of Day
15h 21m
Last Quarter, 37% of the Moon is Illuminated
Aug 24
Last Quarter
Aug 30
New
Sep 5
First Quarter
Sep 13
Full
Sep 21
Last Quarter

Hourly Weather History & Observations

Time (AKDT) Temp. Windchill Dew Point Humidity Pressure Visibility Wind Dir Wind Speed Gust Speed Precip Events Conditions
12:56 AM 46.9 °F - 39.0 °F 74% 29.72 in 10.0 mi Variable 4.6 mph - 0.00 in Rain Light Rain
1:56 AM 46.0 °F 44.8 °F 41.0 °F 83% 29.73 in 10.0 mi Variable 3.5 mph - 0.00 in Rain Light Rain
2:56 AM 43.0 °F - 41.0 °F 93% 29.74 in 10.0 mi Calm Calm - 0.00 in   Overcast
3:56 AM 41.0 °F - 39.9 °F 96% 29.75 in 10.0 mi Calm Calm - N/A   Overcast
4:56 AM 41.0 °F - 39.9 °F 96% 29.75 in 10.0 mi Calm Calm - N/A   Overcast
5:56 AM 41.0 °F - 39.0 °F 93% 29.76 in 10.0 mi Calm Calm - N/A   Overcast
6:56 AM 41.0 °F - 39.9 °F 96% 29.78 in 10.0 mi Calm Calm - N/A   Overcast
7:56 AM 42.1 °F - 39.9 °F 92% 29.79 in 10.0 mi Calm Calm - N/A   Overcast
8:56 AM 43.0 °F - 39.9 °F 89% 29.80 in 10.0 mi Calm Calm - N/A   Overcast
10:56 AM 46.9 °F - 42.1 °F 83% 29.81 in 10.0 mi Calm Calm - N/A   Overcast
11:56 AM 46.9 °F - 42.1 °F 83% 29.82 in 10.0 mi Calm Calm - 0.02 in Rain Light Rain
12:56 PM 50.0 °F - 41.0 °F 71% 29.82 in 10.0 mi SSW 5.8 mph - 0.00 in   Overcast
1:56 PM 55.0 °F - 37.9 °F 53% 29.82 in 10.0 mi North 9.2 mph - N/A   Partly Cloudy
2:56 PM 53.1 °F - 39.9 °F 61% 29.84 in 10.0 mi NE 4.6 mph - 0.00 in Rain Light Rain
3:56 PM 55.9 °F - 37.0 °F 49% 29.83 in 10.0 mi Calm Calm - 0.00 in   Overcast
4:56 PM 54.0 °F - 37.0 °F 53% 29.83 in 10.0 mi NNW 3.5 mph - N/A   Partly Cloudy
5:56 PM 54.0 °F - 39.0 °F 57% 29.83 in 10.0 mi North 3.5 mph - N/A   Mostly Cloudy
6:56 PM 54.0 °F - 39.0 °F 57% 29.84 in 10.0 mi North 3.5 mph - N/A   Overcast
7:56 PM 53.1 °F - 39.0 °F 59% 29.85 in 10.0 mi North 3.5 mph - N/A   Overcast
8:56 PM 51.1 °F - 41.0 °F 68% 29.86 in 9.0 mi Calm Calm - N/A   Scattered Clouds
9:56 PM 46.9 °F - 39.0 °F 74% 29.87 in 10.0 mi West 3.5 mph - N/A   Mostly Cloudy
10:56 PM 43.0 °F 40.3 °F 36.0 °F 76% 29.88 in 10.0 mi SW 4.6 mph - N/A   Scattered Clouds
11:56 PM 39.9 °F - 36.0 °F 86% 29.91 in 10.0 mi Calm Calm - N/A   Scattered Clouds